Time,TemperatureF,DewpointF,PressureIn,WindDirection,WindDirectionDegrees,WindSpeedMPH,WindSpeedGustMPH,Humidity,HourlyPrecipIn,Conditions,Clouds,dailyrainin,SoftwareType,DateUTC
2013-07-15 00:11:00,73.0,71.0,-100.00,NE,45,1.0,1.0,91,0.00,,,-99.99,,2013-07-15 04:11:00,
2013-07-15 01:02:00,73.0,71.0,-100.00,North,0,1.0,1.0,93,0.00,,,-99.99,,2013-07-15 05:02:00,
2013-07-15 01:12:00,72.0,71.0,-100.00,North,350,0.0,1.0,94,0.00,,,-99.99,,2013-07-15 05:12:00,
2013-07-15 01:22:00,72.0,71.0,-100.00,NE,45,0.0,1.0,94,0.00,,,-99.99,,2013-07-15 05:22:00,
2013-07-15 02:12:00,70.0,70.0,-100.00,West,270,0.0,1.0,97,0.00,,,-99.99,,2013-07-15 06:12:00,
2013-07-15 03:11:00,69.0,69.0,-100.00,NW,315,1.0,2.0,98,0.00,,,-99.99,,2013-07-15 07:11:00,
2013-07-15 03:33:00,69.0,69.0,-100.00,WNW,295,1.0,2.0,99,0.00,,,-99.99,,2013-07-15 07:33:00,
2013-07-15 04:02:00,69.0,69.0,-100.00,WNW,300,0.0,1.0,99,0.00,,,-99.99,,2013-07-15 08:02:00,
2013-07-15 05:12:00,68.0,68.0,-100.00,WNW,300,1.0,3.0,99,0.00,,,-99.99,,2013-07-15 09:12:00,
2013-07-15 06:11:00,69.0,69.0,-100.00,WNW,295,1.0,2.0,99,0.00,,,-99.99,,2013-07-15 10:11:00,
2013-07-15 06:22:00,69.0,69.0,-100.00,WNW,300,1.0,2.0,99,0.00,,,-99.99,,2013-07-15 10:22:00,
2013-07-15 07:11:00,72.0,72.0,-100.00,East,90,1.0,3.0,96,0.00,,,-99.99,,2013-07-15 11:11:00,
2013-07-15 08:11:00,75.0,71.0,-100.00,East,90,1.0,3.0,87,0.00,,,-99.99,,2013-07-15 12:11:00,
2013-07-15 09:11:00,80.0,72.0,-100.00,NW,315,1.0,2.0,77,0.00,,,-99.99,,2013-07-15 13:11:00,
2013-07-15 09:33:00,81.0,72.0,-100.00,West,280,2.0,6.0,75,0.00,,,-99.99,,2013-07-15 13:33:00,
2013-07-15 10:11:00,83.0,72.0,-100.00,North,355,1.0,6.0,68,0.00,,,-99.99,,2013-07-15 14:11:00,
2013-07-15 10:22:00,84.0,71.0,-100.00,East,90,1.0,6.0,64,0.00,,,-99.99,,2013-07-15 14:22:00,
2013-07-15 11:28:00,85.0,72.0,-100.00,North,-999,-999.0,-999.0,65,0.00,,,-99.99,,2013-07-15 15:28:00,
2013-07-15 11:53:00,87.0,71.0,-100.00,North,-999,-999.0,-999.0,58,-99.99,,,-99.99,,2013-07-15 15:53:00,
2013-07-15 12:08:00,86.0,71.0,-100.00,WNW,290,2.0,7.0,61,0.00,,,-99.99,,2013-07-15 16:08:00,
2013-07-15 12:24:00,87.0,71.0,-100.00,WSW,245,1.0,7.0,57,0.00,,,-99.99,,2013-07-15 16:24:00,
2013-07-15 13:13:00,87.0,69.0,-100.00,South,185,1.0,5.0,54,0.00,,,-99.99,,2013-07-15 17:13:00,
2013-07-15 13:23:00,89.0,69.0,-100.00,West,275,2.0,7.0,50,0.00,,,-99.99,,2013-07-15 17:23:00,
2013-07-15 13:56:00,90.0,68.0,-100.00,WNW,290,2.0,6.0,48,0.00,,,-99.99,,2013-07-15 17:56:00,
2013-07-15 14:07:00,90.0,69.0,-100.00,WNW,285,2.0,4.0,48,0.00,,,-99.99,,2013-07-15 18:07:00,
2013-07-15 14:18:00,90.0,68.0,-100.00,WSW,240,3.0,8.0,47,0.00,,,-99.99,,2013-07-15 18:18:00,
2013-07-15 16:18:00,92.0,68.0,-100.00,East,80,1.0,4.0,45,0.00,,,-99.99,,2013-07-15 20:18:00,
2013-07-15 16:29:00,92.0,68.0,-100.00,East,80,1.0,4.0,45,0.00,,,-99.99,,2013-07-15 20:29:00,
2013-07-15 16:37:00,93.0,67.0,-100.00,WNW,285,2.0,6.0,43,0.00,,,-99.99,,2013-07-15 20:37:00,
2013-07-15 16:43:00,91.0,69.0,-100.00,West,275,2.0,6.0,47,0.00,,,-99.99,,2013-07-15 20:43:00,
2013-07-15 17:12:00,91.0,69.0,-100.00,SSW,195,2.0,5.0,48,0.00,,,-99.99,,2013-07-15 21:12:00,
2013-07-15 18:22:00,90.0,68.0,-100.00,WSW,250,2.0,4.0,48,0.00,,,-99.99,,2013-07-15 22:22:00,
2013-07-15 19:06:00,87.0,67.0,-100.00,WSW,255,1.0,6.0,50,0.00,,,-99.99,,2013-07-15 23:06:00,
2013-07-15 19:13:00,86.0,66.0,-100.00,West,270,2.0,7.0,50,0.00,,,-99.99,,2013-07-15 23:13:00,
2013-07-15 19:29:00,86.0,67.0,-100.00,West,270,1.0,4.0,52,0.00,,,-99.99,,2013-07-15 23:29:00,
2013-07-15 20:03:00,82.0,70.0,-100.00,NE,45,0.0,1.0,66,0.00,,,-99.99,,2013-07-16 00:03:00,
2013-07-15 20:16:00,82.0,70.0,-100.00,NE,45,0.0,1.0,67,0.00,,,-99.99,,2013-07-16 00:16:00,
2013-07-15 20:27:00,81.0,70.0,-100.00,NE,45,0.0,1.0,69,0.00,,,-99.99,,2013-07-16 00:27:00,
2013-07-15 20:48:00,79.0,69.0,-100.00,North,-999,-999.0,-999.0,72,-99.99,,,-99.99,,2013-07-16 00:48:00,
2013-07-15 21:37:00,77.0,68.0,-100.00,North,0,0.0,1.0,73,0.00,,,-99.99,,2013-07-16 01:37:00,
2013-07-15 22:11:00,75.0,66.0,-100.00,North,0,1.0,1.0,72,0.00,,,-99.99,,2013-07-16 02:11:00,
2013-07-15 22:54:00,74.0,66.0,-100.00,North,10,1.0,2.0,77,0.00,,,-99.99,,2013-07-16 02:54:00,
2013-07-15 23:17:00,74.0,66.0,-100.00,NE,45,0.0,1.0,76,0.00,,,-99.99,,2013-07-16 03:17:00,
2013-07-15 23:29:00,73.0,66.0,-100.00,NE,45,1.0,1.0,77,0.00,,,-99.99,,2013-07-16 03:29:00,
2013-07-15 23:39:00,73.0,66.0,-100.00,North,10,1.0,1.0,77,0.00,,,-99.99,,2013-07-16 03:39:00,
2013-07-15 23:47:00,73.0,66.0,-100.00,NE,45,1.0,1.0,77,0.00,,,-99.99,,2013-07-16 03:47:00,